MFX3304 OEJN-UZTT

Flight info

Callsign MFX3304
Flight time N/A
Altitude 39000
Route EGREP B417 GAS L308 DAROR P559 TOMSO/N0495F310 P559 KIVUS/N0486F350 P559 VUTEB/N0474F390 DCT IVURO/N0488F350 M677 LALDO/N0474F390 B505 PG J215 ATRIS G325 SAJAN/N0481F400 A466 SITAX M875 AMDAR/K0880F400 DCT OGNOB/K0870F390 M168 KUFIM KUFIM2W
Aircraft A333/H-SDE3GHIJ2J3J5M1RVWXY/LB2D1

Departure

Time 2026-05-07 15:52
Airport King Abdulaziz International Airport (OEJN)

Arrival

Time N/A
Airport Tashkent International Airport (UZTT)
Time Latitude Longitude Altitude Speed Heading
2026-05-07 15:01 21.66981 39.16716 61 ft 0 kts 10°
2026-05-07 15:34 21.66970 39.16714 61 ft 2 kts 10°
2026-05-07 15:34 21.66955 39.16711 61 ft 2 kts 10°
2026-05-07 15:35 21.66940 39.16708 61 ft 2 kts 10°
2026-05-07 15:35 21.66925 39.16706 61 ft 2 kts 10°
2026-05-07 15:35 21.66910 39.16703 61 ft 2 kts 10°
2026-05-07 15:35 21.66895 39.16702 61 ft 2 kts 335°
2026-05-07 15:36 21.66884 39.16712 61 ft 2 kts 293°
2026-05-07 15:36 21.66880 39.16728 61 ft 2 kts 282°
2026-05-07 15:36 21.66876 39.16743 61 ft 1 kts 287°
2026-05-07 15:36 21.66876 39.16746 61 ft 0 kts 288°
2026-05-07 15:43 21.66877 39.16740 61 ft 1 kts 285°
2026-05-07 15:43 21.66881 39.16725 61 ft 2 kts 283°
2026-05-07 15:43 21.66886 39.16700 61 ft 4 kts 281°
2026-05-07 15:43 21.66892 39.16665 61 ft 5 kts 280°
2026-05-07 15:44 21.66898 39.16618 61 ft 6 kts 274°
2026-05-07 15:44 21.66892 39.16565 61 ft 7 kts 252°
2026-05-07 15:44 21.66873 39.16507 61 ft 8 kts 249°
2026-05-07 15:44 21.66849 39.16448 61 ft 9 kts 234°
2026-05-07 15:45 21.66795 39.16426 61 ft 9 kts 171°
2026-05-07 15:45 21.66727 39.16449 61 ft 10 kts 160°
2026-05-07 15:45 21.66656 39.16477 61 ft 11 kts 160°
2026-05-07 15:45 21.66580 39.16508 61 ft 12 kts 160°
2026-05-07 15:46 21.66417 39.16572 61 ft 13 kts 160°
2026-05-07 15:46 21.66331 39.16606 61 ft 12 kts 160°
2026-05-07 15:46 21.66256 39.16635 61 ft 6 kts 160°
2026-05-07 15:47 21.66211 39.16643 61 ft 5 kts 191°
2026-05-07 15:47 21.66204 39.16641 61 ft 0 kts 200°
2026-05-07 15:47 21.66200 39.16639 61 ft 0 kts 205°
2026-05-07 15:49 21.66198 39.16637 61 ft 1 kts 211°
2026-05-07 15:49 21.66190 39.16627 61 ft 2 kts 229°
2026-05-07 15:50 21.66177 39.16606 61 ft 4 kts 242°
2026-05-07 15:50 21.66163 39.16575 61 ft 5 kts 247°
2026-05-07 15:50 21.66150 39.16534 61 ft 6 kts 258°
2026-05-07 15:50 21.66161 39.16487 61 ft 7 kts 307°
2026-05-07 15:51 21.66207 39.16457 61 ft 5 kts 337°
2026-05-07 15:51 21.66234 39.16445 61 ft 4 kts 338°
2026-05-07 15:51 21.66271 39.16430 61 ft 10 kts 339°
2026-05-07 15:51 21.66543 39.16322 61 ft 75 kts 340°
2026-05-07 15:52 21.67224 39.16055 62 ft 134 kts 340°
2026-05-07 15:52 21.68265 39.15645 142 ft 176 kts 339°
2026-05-07 15:52 21.69406 39.15204 819 ft 175 kts 340°
2026-05-07 15:52 21.70511 39.14767 1678 ft 168 kts 340°
2026-05-07 15:53 21.71569 39.14344 2180 ft 168 kts 340°
2026-05-07 15:53 21.72717 39.13890 2433 ft 181 kts 341°
2026-05-07 15:53 21.73940 39.13407 2691 ft 194 kts 341°
2026-05-07 15:53 21.75244 39.12893 2945 ft 208 kts 341°
2026-05-07 15:54 21.76638 39.12343 3218 ft 222 kts 341°
2026-05-07 15:54 21.78187 39.11983 3487 ft 235 kts
2026-05-07 15:54 21.79690 39.12682 3798 ft 249 kts 41°
2026-05-07 15:54 21.80915 39.14055 4198 ft 259 kts 45°
2026-05-07 15:55 21.82173 39.15463 4722 ft 264 kts 44°
2026-05-07 15:55 21.83451 39.16857 5326 ft 265 kts 44°
2026-05-07 15:55 21.84764 39.18266 5921 ft 267 kts 44°
2026-05-07 15:55 21.86075 39.19662 6487 ft 269 kts 44°
2026-05-07 15:56 21.87425 39.21092 7051 ft 271 kts 44°
2026-05-07 15:56 21.88768 39.22510 7600 ft 274 kts 44°
2026-05-07 15:56 21.90115 39.23930 8141 ft 276 kts 44°
2026-05-07 15:56 21.91498 39.25386 8687 ft 278 kts 45°
2026-05-07 15:57 21.92882 39.26843 9224 ft 281 kts 45°
2026-05-07 15:57 21.94285 39.28319 9758 ft 284 kts 45°
2026-05-07 15:57 21.95693 39.29801 10194 ft 290 kts 45°
2026-05-07 15:57 21.97165 39.31352 10437 ft 304 kts 45°
2026-05-07 15:58 21.98705 39.32975 10681 ft 317 kts 45°
2026-05-07 15:58 22.00314 39.34670 10921 ft 330 kts 45°
2026-05-07 15:58 22.01988 39.36435 11171 ft 343 kts 45°
2026-05-07 15:58 22.03706 39.38245 11602 ft 349 kts 45°
2026-05-07 15:59 22.05458 39.40090 12152 ft 352 kts 45°
2026-05-07 15:59 22.07199 39.41925 12701 ft 355 kts 45°
2026-05-07 15:59 22.08960 39.43784 13266 ft 357 kts 45°
2026-05-07 15:59 22.10738 39.45660 13826 ft 359 kts 45°
2026-05-07 16:00 22.12518 39.47539 14382 ft 361 kts 45°
2026-05-07 16:00 22.14302 39.49422 14932 ft 364 kts 45°
2026-05-07 16:00 22.16116 39.51337 15484 ft 366 kts 45°
2026-05-07 16:00 22.17943 39.53267 16033 ft 369 kts 45°
2026-05-07 16:01 22.19760 39.55188 16573 ft 371 kts 44°
2026-05-07 16:01 22.21613 39.57147 17116 ft 374 kts 44°
2026-05-07 16:01 22.23470 39.59111 17651 ft 376 kts 44°
2026-05-07 16:01 22.25334 39.61083 18189 ft 379 kts 44°
2026-05-07 16:02 22.27232 39.63091 18731 ft 381 kts 44°
2026-05-07 16:02 22.29246 39.65223 19283 ft 384 kts 44°
2026-05-07 16:02 22.31238 39.67334 19809 ft 387 kts 44°
2026-05-07 16:02 22.33272 39.69488 20324 ft 390 kts 44°
2026-05-07 16:03 22.35336 39.71676 20827 ft 392 kts 44°
2026-05-07 16:03 22.37419 39.73885 21315 ft 395 kts 44°
2026-05-07 16:03 22.39539 39.76134 21793 ft 398 kts 44°
2026-05-07 16:03 22.41659 39.78384 22257 ft 401 kts 43°
2026-05-07 16:04 22.43800 39.80657 22700 ft 404 kts 43°
2026-05-07 16:04 22.45870 39.82852 23112 ft 407 kts 43°
2026-05-07 16:04 22.48106 39.85066 23530 ft 409 kts 40°
2026-05-07 16:04 22.50350 39.87213 23931 ft 412 kts 40°
2026-05-07 16:05 22.52597 39.89353 24319 ft 415 kts 40°
2026-05-07 16:05 22.54826 39.91477 24692 ft 417 kts 40°
2026-05-07 16:05 22.57177 39.93719 25076 ft 420 kts 40°
2026-05-07 16:05 22.59537 39.95971 25449 ft 422 kts 40°
2026-05-07 16:06 22.61912 39.98240 25813 ft 425 kts 39°
2026-05-07 16:06 22.64248 40.00472 26159 ft 428 kts 39°
2026-05-07 16:06 22.66606 40.02728 26501 ft 430 kts 39°
2026-05-07 16:06 22.68963 40.04984 26833 ft 432 kts 39°
2026-05-07 16:07 22.71241 40.07164 27138 ft 435 kts 39°
2026-05-07 16:07 22.73493 40.09322 27435 ft 437 kts 39°
2026-05-07 16:07 22.75800 40.11532 27733 ft 439 kts 39°
2026-05-07 16:07 22.78298 40.13927 28047 ft 441 kts 39°
2026-05-07 16:08 22.80804 40.16331 28351 ft 444 kts 39°
2026-05-07 16:08 22.83204 40.18636 28636 ft 446 kts 39°
2026-05-07 16:08 22.85528 40.20867 28898 ft 448 kts 39°
2026-05-07 16:08 22.87872 40.23119 29153 ft 451 kts 39°
2026-05-07 16:09 22.90218 40.25375 29411 ft 453 kts 39°
2026-05-07 16:09 22.92570 40.27640 29684 ft 454 kts 38°
2026-05-07 16:09 22.95120 40.30087 29871 ft 459 kts 39°
2026-05-07 16:09 22.97615 40.32487 29991 ft 465 kts 39°
2026-05-07 16:10 23.00121 40.35045 30099 ft 473 kts 47°
2026-05-07 16:10 23.02004 40.38254 30207 ft 483 kts 65°
2026-05-07 16:10 23.03045 40.41940 30322 ft 490 kts 79°
2026-05-07 16:10 23.03601 40.45773 30442 ft 495 kts 81°
2026-05-07 16:11 23.04106 40.49744 30557 ft 501 kts 82°
2026-05-07 16:11 23.04617 40.53748 30703 ft 505 kts 81°
2026-05-07 16:11 23.05154 40.57806 30922 ft 508 kts 81°
2026-05-07 16:11 23.05690 40.61745 31163 ft 510 kts 81°
2026-05-07 16:12 23.06247 40.65772 31406 ft 512 kts 81°
2026-05-07 16:12 23.06811 40.69794 31627 ft 514 kts 80°
2026-05-07 16:12 23.07403 40.74005 31858 ft 515 kts 80°
2026-05-07 16:12 23.07989 40.78164 32082 ft 517 kts 80°
2026-05-07 16:13 23.08582 40.82381 32306 ft 519 kts 80°
2026-05-07 16:13 23.09149 40.86415 32503 ft 520 kts 80°
2026-05-07 16:13 23.09720 40.90488 32686 ft 522 kts 80°
2026-05-07 16:13 23.10308 40.94685 32892 ft 524 kts 79°
2026-05-07 16:14 23.10897 40.98909 33164 ft 523 kts 79°
2026-05-07 16:14 23.11487 41.03153 33453 ft 523 kts 79°
2026-05-07 16:14 23.12080 41.07431 33739 ft 522 kts 79°
2026-05-07 16:14 23.12627 41.11375 34008 ft 521 kts 79°
2026-05-07 16:15 23.13165 41.15252 34276 ft 520 kts 79°
2026-05-07 16:15 23.13713 41.19196 34541 ft 519 kts 79°
2026-05-07 16:15 23.14286 41.23330 34809 ft 518 kts 79°
2026-05-07 16:15 23.14875 41.27595 35077 ft 518 kts 79°
2026-05-07 16:16 23.15457 41.31825 35337 ft 517 kts 79°
2026-05-07 16:16 23.16037 41.36043 35588 ft 516 kts 79°
2026-05-07 16:16 23.16612 41.40240 35831 ft 515 kts 79°
2026-05-07 16:16 23.17176 41.44364 36063 ft 515 kts 79°
2026-05-07 16:17 23.17702 41.48226 36273 ft 514 kts 79°
2026-05-07 16:17 23.18225 41.52059 36470 ft 514 kts 79°
2026-05-07 16:17 23.18745 41.55888 36654 ft 513 kts 79°
2026-05-07 16:17 23.19265 41.59721 36828 ft 513 kts 79°
2026-05-07 16:18 23.19787 41.63577 36998 ft 513 kts 79°
2026-05-07 16:18 23.20355 41.67773 37164 ft 514 kts 79°
2026-05-07 16:18 23.20913 41.71919 37311 ft 514 kts 79°
2026-05-07 16:18 23.21466 41.76026 37458 ft 514 kts 79°
2026-05-07 16:19 23.22025 41.80190 37607 ft 514 kts 79°
2026-05-07 16:19 23.22594 41.84440 37756 ft 514 kts 79°
2026-05-07 16:19 23.23147 41.88571 37898 ft 514 kts 79°
2026-05-07 16:19 23.23702 41.92733 38036 ft 513 kts 79°
2026-05-07 16:20 23.24266 41.96964 38174 ft 513 kts 79°
2026-05-07 16:20 23.24826 42.01177 38308 ft 513 kts 79°
2026-05-07 16:20 23.25375 42.05316 38437 ft 513 kts 79°
2026-05-07 16:20 23.25927 42.09481 38564 ft 513 kts 79°
2026-05-07 16:21 23.26487 42.13725 38691 ft 513 kts 79°
2026-05-07 16:21 23.27039 42.17905 38811 ft 513 kts 79°
2026-05-07 16:21 23.27592 42.22111 38929 ft 513 kts 79°
2026-05-07 16:21 23.28148 42.26344 39044 ft 513 kts 79°
2026-05-07 16:22 23.28694 42.30518 39066 ft 514 kts 79°
2026-05-07 16:22 23.29789 42.38898 39064 ft 514 kts 79°
2026-05-07 16:23 23.30796 42.46639 39061 ft 514 kts 79°
2026-05-07 16:23 23.31795 42.54347 39060 ft 514 kts 79°
2026-05-07 16:24 23.32856 42.62570 39059 ft 514 kts 79°
2026-05-07 16:24 23.33931 42.70938 39057 ft 514 kts 79°
2026-05-07 16:25 23.34994 42.79254 39059 ft 514 kts 79°
2026-05-07 16:25 23.36061 42.87632 39059 ft 514 kts 79°
2026-05-07 16:26 23.37130 42.96062 39059 ft 514 kts 79°
2026-05-07 16:26 23.38199 43.04496 39059 ft 515 kts 80°
2026-05-07 16:27 23.39223 43.12609 39059 ft 516 kts 81°
2026-05-07 16:27 23.40190 43.20322 39059 ft 517 kts 81°
2026-05-07 16:28 23.41180 43.28288 39059 ft 517 kts 81°
2026-05-07 16:28 23.42212 43.36634 39059 ft 517 kts 81°
2026-05-07 16:29 23.43234 43.44916 39059 ft 517 kts 81°
2026-05-07 16:29 23.44198 43.52754 39059 ft 517 kts 81°
2026-05-07 16:30 23.45206 43.60975 39059 ft 517 kts 81°
2026-05-07 16:30 23.46230 43.69371 39057 ft 517 kts 82°
2026-05-07 16:31 23.47209 43.77440 39059 ft 517 kts 82°
2026-05-07 16:31 23.48146 43.85188 39059 ft 517 kts 82°
2026-05-07 16:32 23.49079 43.92930 39059 ft 517 kts 82°
2026-05-07 16:32 23.50010 44.00700 39059 ft 517 kts 82°
2026-05-07 16:33 23.50972 44.08754 39059 ft 517 kts 82°
2026-05-07 16:33 23.51976 44.17209 39059 ft 517 kts 82°
2026-05-07 16:34 23.52968 44.25594 39059 ft 517 kts 82°
2026-05-07 16:34 23.53932 44.33788 39059 ft 517 kts 82°
2026-05-07 16:35 23.54839 44.41520 39059 ft 517 kts 82°
2026-05-07 16:35 23.55750 44.49331 39059 ft 517 kts 82°
2026-05-07 16:36 23.56721 44.57689 39059 ft 517 kts 82°
2026-05-07 16:36 23.57683 44.66015 39057 ft 517 kts 82°
2026-05-07 16:37 23.58622 44.74170 39058 ft 517 kts 82°
2026-05-07 16:37 23.59509 44.81915 39059 ft 517 kts 82°
2026-05-07 16:38 23.60433 44.90018 39059 ft 516 kts 82°
2026-05-07 16:38 23.61378 44.98293 39060 ft 515 kts 83°
2026-05-07 16:39 23.62253 45.06011 39060 ft 514 kts 83°
2026-05-07 16:39 23.63120 45.13720 39060 ft 511 kts 84°
2026-05-07 16:40 23.63970 45.21357 39059 ft 511 kts 84°
2026-05-07 16:40 23.64834 45.29144 39059 ft 510 kts 84°
2026-05-07 16:41 23.65705 45.37012 39059 ft 510 kts 84°
2026-05-07 16:41 23.66600 45.45123 39059 ft 510 kts 84°
2026-05-07 16:42 23.67491 45.53239 39059 ft 510 kts 84°
2026-05-07 16:42 23.68367 45.61250 39059 ft 510 kts 84°
2026-05-07 16:43 23.69246 45.69328 39057 ft 510 kts 84°
2026-05-07 16:43 23.70101 45.77226 39059 ft 510 kts 84°
2026-05-07 16:44 23.70952 45.85132 39059 ft 510 kts 84°
2026-05-07 16:44 23.71819 45.93218 39059 ft 510 kts 84°
2026-05-07 16:45 23.72673 46.01219 39059 ft 510 kts 84°
2026-05-07 16:45 23.73493 46.08949 39059 ft 510 kts 84°
2026-05-07 16:46 23.74301 46.16596 39059 ft 510 kts 84°
2026-05-07 16:46 23.75108 46.24273 39059 ft 510 kts 84°
2026-05-07 16:47 23.75908 46.31921 39059 ft 510 kts 84°
2026-05-07 16:47 23.76710 46.39623 39059 ft 510 kts 84°
2026-05-07 16:48 23.77501 46.47260 39059 ft 510 kts 84°
2026-05-07 16:48 23.78293 46.54940 39059 ft 510 kts 84°
2026-05-07 16:49 23.79081 46.62629 39059 ft 510 kts 84°
2026-05-07 16:49 23.79865 46.70293 39057 ft 509 kts 85°
2026-05-07 16:50 23.80644 46.77963 39059 ft 509 kts 85°
2026-05-07 16:50 23.81417 46.85613 39056 ft 509 kts 85°
2026-05-07 16:51 23.82189 46.93283 39026 ft 506 kts 85°
2026-05-07 16:51 23.82951 47.00900 38972 ft 504 kts 85°
2026-05-07 16:52 23.83705 47.08473 38910 ft 503 kts 85°
2026-05-07 16:52 23.84454 47.16033 38867 ft 503 kts 85°
2026-05-07 16:53 23.85200 47.23611 38849 ft 503 kts 85°
2026-05-07 16:53 23.85940 47.31155 38842 ft 503 kts 85°
2026-05-07 16:54 23.86682 47.38766 38840 ft 503 kts 85°
2026-05-07 16:54 23.87417 47.46335 38840 ft 503 kts 85°
2026-05-07 16:55 23.88151 47.53935 38840 ft 503 kts 85°
2026-05-07 16:55 23.88876 47.61488 38840 ft 503 kts 85°
2026-05-07 16:56 23.89601 47.69071 38838 ft 502 kts 85°
2026-05-07 16:56 23.90682 47.80449 38840 ft 502 kts 85°
2026-05-07 16:57 23.91395 47.88004 38840 ft 502 kts 85°
2026-05-07 16:57 23.92107 47.95601 38840 ft 502 kts 85°
2026-05-07 16:58 23.92815 48.03188 38840 ft 502 kts 85°
2026-05-07 16:58 23.93520 48.10784 38840 ft 502 kts 85°
2026-05-07 16:59 23.94217 48.18333 38840 ft 502 kts 85°
2026-05-07 16:59 23.94912 48.25902 38840 ft 502 kts 85°
2026-05-07 17:00 23.95607 48.33515 38840 ft 502 kts 85°
2026-05-07 17:00 23.96292 48.41063 38840 ft 502 kts 85°
2026-05-07 17:01 23.96978 48.48658 38840 ft 502 kts 85°
2026-05-07 17:01 23.97657 48.56221 38840 ft 502 kts 85°
2026-05-07 17:02 23.98337 48.63838 38840 ft 502 kts 85°
2026-05-07 17:02 23.99009 48.71407 38839 ft 502 kts 86°
2026-05-07 17:03 23.99680 48.79007 38847 ft 502 kts 86°
2026-05-07 17:03 24.00344 48.86573 38859 ft 502 kts 86°
2026-05-07 17:04 24.01008 48.94170 38865 ft 502 kts 86°
2026-05-07 17:04 24.01665 49.01742 38867 ft 501 kts 86°
2026-05-07 17:05 24.02316 49.09281 38867 ft 500 kts 86°
2026-05-07 17:05 24.02964 49.16825 38867 ft 499 kts 86°
2026-05-07 17:06 24.03606 49.24354 38867 ft 498 kts 86°
2026-05-07 17:06 24.04243 49.31864 38866 ft 497 kts 86°
2026-05-07 17:07 24.04878 49.39405 38866 ft 497 kts 86°
2026-05-07 17:07 24.05506 49.46898 38866 ft 497 kts 86°
2026-05-07 17:08 24.06136 49.54457 38866 ft 497 kts 86°
2026-05-07 17:08 24.06755 49.61932 38866 ft 497 kts 86°
2026-05-07 17:09 24.07377 49.69490 38865 ft 497 kts 86°
2026-05-07 17:09 24.07993 49.77010 38867 ft 497 kts 86°
2026-05-07 17:10 24.08603 49.84507 38867 ft 497 kts 86°
2026-05-07 17:10 24.09212 49.92035 38867 ft 497 kts 86°
2026-05-07 17:11 24.09813 49.99528 38867 ft 497 kts 86°
2026-05-07 17:11 24.10417 50.07084 38866 ft 497 kts 86°
2026-05-07 17:12 24.11012 50.14587 38867 ft 497 kts 86°
2026-05-07 17:12 24.11605 50.22110 38867 ft 497 kts 86°
2026-05-07 17:13 24.12194 50.29617 38867 ft 497 kts 86°
2026-05-07 17:13 24.12777 50.37116 38867 ft 497 kts 86°
2026-05-07 17:14 24.13359 50.44633 38867 ft 497 kts 86°
2026-05-07 17:14 24.13937 50.52149 38867 ft 497 kts 86°
2026-05-07 17:15 24.14512 50.59684 38867 ft 497 kts 86°
2026-05-07 17:15 24.15082 50.67184 38865 ft 496 kts 86°
2026-05-07 17:16 24.15648 50.74698 38866 ft 496 kts 86°
2026-05-07 17:16 24.16211 50.82232 38866 ft 497 kts 86°
2026-05-07 17:17 24.16769 50.89726 38866 ft 497 kts 86°
2026-05-07 17:17 24.17326 50.97275 38866 ft 498 kts 86°
2026-05-07 17:18 24.17878 51.04796 38866 ft 499 kts 86°
2026-05-07 17:18 24.18432 51.12398 38866 ft 500 kts 86°
2026-05-07 17:19 24.18979 51.19944 38867 ft 501 kts 86°
2026-05-07 17:19 24.19527 51.27569 38867 ft 501 kts 86°
2026-05-07 17:20 24.20066 51.35117 38867 ft 501 kts 86°
2026-05-07 17:20 24.20607 51.42747 38867 ft 501 kts 86°
2026-05-07 17:21 24.21140 51.50322 38867 ft 500 kts 86°
2026-05-07 17:21 24.21669 51.57893 38867 ft 500 kts 86°
2026-05-07 17:22 24.22196 51.65484 38867 ft 500 kts 87°
2026-05-07 17:22 24.22721 51.73096 38866 ft 500 kts 87°
2026-05-07 17:23 24.23238 51.80667 38866 ft 500 kts 87°
2026-05-07 17:23 24.23751 51.88229 38866 ft 500 kts 87°
2026-05-07 17:24 24.24264 51.95846 38857 ft 500 kts 87°
2026-05-07 17:24 24.24770 52.03408 38837 ft 500 kts 87°
2026-05-07 17:25 24.25275 52.11019 38814 ft 500 kts 87°
2026-05-07 17:25 24.25775 52.18618 38796 ft 500 kts 87°
2026-05-07 17:26 24.26270 52.26185 38789 ft 500 kts 87°
2026-05-07 17:26 24.26762 52.33761 38786 ft 500 kts 87°
2026-05-07 17:27 24.27250 52.41351 38785 ft 501 kts 87°
2026-05-07 17:27 24.27736 52.48954 38785 ft 501 kts 87°
2026-05-07 17:28 24.28218 52.56561 38785 ft 501 kts 87°
2026-05-07 17:28 24.28697 52.64182 38785 ft 501 kts 87°
2026-05-07 17:29 24.29172 52.71784 38784 ft 500 kts 88°
2026-05-07 17:29 24.29639 52.79346 38785 ft 501 kts 88°
2026-05-07 17:30 24.30104 52.86938 38785 ft 500 kts 88°
2026-05-07 17:30 24.30568 52.94545 38785 ft 500 kts 88°
2026-05-07 17:31 24.31023 53.02090 38785 ft 499 kts 88°
2026-05-07 17:31 24.31479 53.09695 38785 ft 498 kts 88°
2026-05-07 17:32 24.31926 53.17239 38785 ft 498 kts 88°
2026-05-07 17:32 24.32372 53.24820 38785 ft 499 kts 88°
2026-05-07 17:33 24.32813 53.32368 38785 ft 499 kts 88°
2026-05-07 17:33 24.33252 53.39967 38785 ft 499 kts 88°
2026-05-07 17:34 24.33688 53.47557 38785 ft 499 kts 88°
2026-05-07 17:34 24.34118 53.55121 38785 ft 499 kts 88°
2026-05-07 17:35 24.34544 53.62687 38785 ft 499 kts 88°
2026-05-07 17:35 24.34967 53.70253 38784 ft 498 kts 88°
2026-05-07 17:36 24.35386 53.77831 38785 ft 499 kts 88°
2026-05-07 17:36 24.35801 53.85403 38785 ft 499 kts 88°
2026-05-07 17:37 24.36213 53.92970 38785 ft 498 kts 88°
2026-05-07 17:37 24.36622 54.00574 38785 ft 499 kts 88°
2026-05-07 17:38 24.37026 54.08148 38785 ft 499 kts 88°
2026-05-07 17:38 24.37429 54.15760 38785 ft 499 kts 88°
2026-05-07 17:39 24.37825 54.23326 38785 ft 499 kts 88°
2026-05-07 17:39 24.38218 54.30897 38785 ft 498 kts 88°
2026-05-07 17:40 24.38607 54.38478 38785 ft 499 kts 88°
2026-05-07 17:40 24.38990 54.46009 38785 ft 499 kts 88°
2026-05-07 17:41 24.39371 54.53576 38785 ft 498 kts 88°
2026-05-07 17:41 24.39751 54.61192 38785 ft 499 kts 88°
2026-05-07 17:42 24.40123 54.68741 38784 ft 499 kts 88°
2026-05-07 17:42 24.40495 54.76344 38785 ft 498 kts 88°
2026-05-07 17:43 24.40861 54.83926 38785 ft 498 kts 88°
2026-05-07 17:43 24.41222 54.91472 38785 ft 498 kts 88°
2026-05-07 17:44 24.41580 54.99045 38785 ft 498 kts 88°
2026-05-07 17:44 24.41934 55.06612 38792 ft 497 kts 88°
2026-05-07 17:45 24.42282 55.14148 38804 ft 496 kts 88°
2026-05-07 17:45 24.42629 55.21696 38822 ft 495 kts 88°
2026-05-07 17:46 24.42971 55.29224 38837 ft 495 kts 88°
2026-05-07 17:46 24.43307 55.36708 38848 ft 495 kts 88°
2026-05-07 17:47 24.43642 55.44270 38857 ft 495 kts 88°
2026-05-07 17:47 24.43973 55.51788 38861 ft 495 kts 88°
2026-05-07 17:48 24.44298 55.59271 38865 ft 495 kts 88°
2026-05-07 17:48 24.44620 55.66802 38864 ft 495 kts 89°
2026-05-07 17:49 24.44940 55.74365 38866 ft 495 kts 89°
2026-05-07 17:49 24.45255 55.81859 38867 ft 495 kts 89°
2026-05-07 17:50 24.45566 55.89386 38867 ft 495 kts 89°
2026-05-07 17:50 24.45873 55.96896 38867 ft 495 kts 89°
2026-05-07 17:51 24.46177 56.04443 38866 ft 494 kts 89°
2026-05-07 17:51 24.46477 56.11948 38867 ft 495 kts 88°
2026-05-07 17:52 24.46774 56.19491 38867 ft 494 kts 89°
2026-05-07 17:52 24.47068 56.27024 38857 ft 495 kts 89°
2026-05-07 17:53 24.47356 56.34544 38835 ft 495 kts 89°
2026-05-07 17:53 24.47641 56.42064 38805 ft 495 kts 89°
2026-05-07 17:54 24.47922 56.49577 38782 ft 495 kts 89°
2026-05-07 17:54 24.48201 56.57124 38768 ft 495 kts 88°
2026-05-07 17:55 24.48474 56.64626 38761 ft 495 kts 89°
2026-05-07 17:55 24.48745 56.72161 38758 ft 495 kts 89°
2026-05-07 17:56 24.49011 56.79684 38758 ft 495 kts 89°
2026-05-07 17:56 24.49275 56.87251 38758 ft 495 kts 89°
2026-05-07 17:57 24.49491 56.93528 38758 ft 495 kts 89°
2026-05-07 17:57 24.49788 57.02285 38759 ft 495 kts 89°
2026-05-07 17:58 24.50040 57.09829 38757 ft 496 kts 89°
2026-05-07 17:58 24.50289 57.17395 38758 ft 496 kts 89°
2026-05-07 17:59 24.50534 57.24922 38758 ft 496 kts 89°
2026-05-07 17:59 24.50775 57.32475 38758 ft 496 kts 89°
2026-05-07 18:00 24.51013 57.40025 38758 ft 496 kts 89°
2026-05-07 18:00 24.51246 57.47574 38758 ft 496 kts 89°
2026-05-07 18:01 24.51476 57.55125 38759 ft 496 kts 89°
2026-05-07 18:01 24.51702 57.62662 38759 ft 496 kts 89°
2026-05-07 18:02 24.52035 57.74012 38758 ft 496 kts 89°
2026-05-07 18:03 24.52250 57.81553 38758 ft 496 kts 89°
2026-05-07 18:03 24.52463 57.89068 38759 ft 496 kts 89°
2026-05-07 18:04 24.52673 57.96639 38758 ft 496 kts 89°
2026-05-07 18:04 24.52879 58.04213 38759 ft 496 kts 89°
2026-05-07 18:05 24.53079 58.11721 38759 ft 496 kts 89°
2026-05-07 18:05 24.53277 58.19294 38759 ft 496 kts 89°
2026-05-07 18:06 24.53472 58.26836 38758 ft 496 kts 89°
2026-05-07 18:06 24.53662 58.34370 38758 ft 496 kts 89°
2026-05-07 18:07 24.53848 58.41946 38759 ft 496 kts 89°
2026-05-07 18:07 24.54031 58.49502 38758 ft 496 kts 89°
2026-05-07 18:08 24.54211 58.57068 38758 ft 496 kts 89°
2026-05-07 18:08 24.54386 58.64603 38759 ft 496 kts 89°
2026-05-07 18:09 24.54558 58.72176 38758 ft 496 kts 90°
2026-05-07 18:09 24.54725 58.79698 38758 ft 496 kts 90°
2026-05-07 18:10 24.54888 58.87233 38759 ft 496 kts 90°
2026-05-07 18:10 24.55048 58.94815 38759 ft 496 kts 89°
2026-05-07 18:11 24.55204 59.02353 38759 ft 496 kts 89°
2026-05-07 18:11 24.55357 59.09914 38758 ft 497 kts 89°
2026-05-07 18:12 24.55507 59.17476 38758 ft 497 kts 89°
2026-05-07 18:12 24.55653 59.25049 38758 ft 497 kts 90°
2026-05-07 18:13 24.55795 59.32594 38759 ft 497 kts 89°
2026-05-07 18:13 24.55932 59.40173 38757 ft 497 kts 89°
2026-05-07 18:14 24.56066 59.47744 38759 ft 497 kts 89°
2026-05-07 18:14 24.56197 59.55312 38759 ft 496 kts 89°
2026-05-07 18:15 24.56323 59.62840 38759 ft 497 kts 89°
2026-05-07 18:15 24.56446 59.70427 38757 ft 497 kts 90°
2026-05-07 18:16 24.56566 59.77998 38758 ft 497 kts 90°
2026-05-07 18:16 24.56681 59.85561 38759 ft 497 kts 90°
2026-05-07 18:17 24.56791 59.93090 38759 ft 497 kts 90°
2026-05-07 18:17 24.56900 60.00674 38759 ft 497 kts 90°
2026-05-07 18:18 24.57004 60.08260 38759 ft 497 kts 90°
2026-05-07 18:18 24.57104 60.15832 38759 ft 497 kts 90°
2026-05-07 18:19 24.57199 60.23344 38758 ft 497 kts 90°
2026-05-07 18:19 24.57292 60.30928 38757 ft 497 kts 90°
2026-05-07 18:20 24.57382 60.38533 38757 ft 497 kts 90°
2026-05-07 18:20 24.57467 60.46098 38758 ft 497 kts 90°
2026-05-07 18:21 24.57547 60.53620 38759 ft 497 kts 90°
2026-05-07 18:21 24.57626 60.61213 38766 ft 496 kts 90°
2026-05-07 18:22 24.57700 60.68786 38773 ft 496 kts 90°
2026-05-07 18:22 24.57770 60.76320 38791 ft 496 kts 90°
2026-05-07 18:23 24.57836 60.83906 38804 ft 497 kts 90°
2026-05-07 18:23 24.57899 60.91447 38816 ft 497 kts 90°
2026-05-07 18:24 24.57958 60.99006 38826 ft 497 kts 90°
2026-05-07 18:24 24.58014 61.06563 38833 ft 497 kts 90°
2026-05-07 18:25 24.58068 61.14162 38837 ft 497 kts 90°
2026-05-07 18:25 24.58116 61.21696 38838 ft 496 kts 89°
2026-05-07 18:26 24.58553 61.29237 38838 ft 497 kts 83°
2026-05-07 18:26 24.59814 61.36720 38838 ft 497 kts 75°
2026-05-07 18:27 24.61879 61.43906 38838 ft 496 kts 68°
2026-05-07 18:27 24.64409 61.50954 38838 ft 496 kts 67°
2026-05-07 18:28 24.66941 61.57950 38838 ft 496 kts 67°
2026-05-07 18:28 24.69465 61.64988 38838 ft 496 kts 68°
2026-05-07 18:29 24.71981 61.72045 38838 ft 496 kts 68°
2026-05-07 18:29 24.74498 61.79123 38838 ft 496 kts 68°
2026-05-07 18:30 24.76988 61.86141 38838 ft 496 kts 68°
2026-05-07 18:30 24.79494 61.93211 38838 ft 496 kts 68°
2026-05-07 18:31 24.81982 62.00247 38838 ft 496 kts 68°
2026-05-07 18:31 24.84473 62.07305 38838 ft 496 kts 68°
2026-05-07 18:32 24.86967 62.14380 38838 ft 496 kts 68°
2026-05-07 18:32 24.89462 62.21471 38838 ft 496 kts 68°
2026-05-07 18:33 24.91944 62.28539 38838 ft 496 kts 68°
2026-05-07 18:33 24.94412 62.35579 38838 ft 497 kts 68°
2026-05-07 18:34 24.96887 62.42652 38838 ft 497 kts 68°
2026-05-07 18:34 24.99378 62.49784 38838 ft 498 kts 68°
2026-05-07 18:35 25.01855 62.56888 38837 ft 499 kts 68°
2026-05-07 18:35 25.04336 62.64013 38837 ft 501 kts 68°
2026-05-07 18:36 25.06813 62.71140 38837 ft 502 kts 68°
2026-05-07 18:36 25.09318 62.78357 38837 ft 503 kts 68°
2026-05-07 18:37 25.11807 62.85547 38837 ft 504 kts 68°
2026-05-07 18:37 25.14292 62.92729 38839 ft 505 kts 68°
2026-05-07 18:38 25.16798 62.99992 38837 ft 505 kts 68°
2026-05-07 18:38 25.19277 63.07183 38837 ft 505 kts 68°
2026-05-07 18:39 25.21784 63.14469 38838 ft 506 kts 68°
2026-05-07 18:39 25.24275 63.21718 38838 ft 506 kts 68°
2026-05-07 18:40 25.27220 63.28738 38838 ft 503 kts 55°
2026-05-07 18:40 25.31619 63.34588 38837 ft 495 kts 38°
2026-05-07 18:41 25.37157 63.38850 38837 ft 486 kts 22°
2026-05-07 18:41 25.43308 63.41825 38839 ft 483 kts 18°
2026-05-07 18:42 25.49535 63.44665 38839 ft 483 kts 18°
2026-05-07 18:42 25.55686 63.47514 38838 ft 483 kts 18°
2026-05-07 18:43 25.61875 63.50412 38838 ft 483 kts 18°
2026-05-07 18:43 25.68038 63.53306 38837 ft 483 kts 18°
2026-05-07 18:44 25.74171 63.56192 38836 ft 484 kts 18°
2026-05-07 18:44 25.80381 63.59117 38839 ft 484 kts 18°
2026-05-07 18:45 25.86532 63.62017 38838 ft 484 kts 18°
2026-05-07 18:45 25.92730 63.64942 38837 ft 484 kts 18°
2026-05-07 18:46 25.98880 63.67848 38837 ft 484 kts 18°
2026-05-07 18:46 26.05065 63.70772 38838 ft 484 kts 19°
2026-05-07 18:47 26.11266 63.73704 38838 ft 484 kts 18°
2026-05-07 18:47 26.17461 63.76633 38837 ft 484 kts 18°
2026-05-07 18:48 26.23720 63.79595 38839 ft 484 kts 18°
2026-05-07 18:48 26.29901 63.82524 38838 ft 484 kts 18°
2026-05-07 18:49 26.36084 63.85458 38837 ft 484 kts 18°
2026-05-07 18:49 26.42243 63.88384 38837 ft 484 kts 18°
2026-05-07 18:50 26.48432 63.91327 38833 ft 484 kts 18°
2026-05-07 18:50 26.54626 63.94275 38833 ft 484 kts 18°
2026-05-07 18:51 26.60819 63.97227 38834 ft 484 kts 18°
2026-05-07 18:51 26.67009 64.00180 38838 ft 484 kts 18°
2026-05-07 18:52 26.73170 64.03122 38836 ft 484 kts 18°
2026-05-07 18:52 26.79389 64.06096 38838 ft 484 kts 18°
2026-05-07 18:53 26.85557 64.09053 38837 ft 484 kts 19°
2026-05-07 18:53 26.91712 64.12553 38837 ft 489 kts 26°
2026-05-07 18:54 26.97586 64.17049 38830 ft 497 kts 34°
2026-05-07 18:54 27.03069 64.22575 38823 ft 503 kts 40°
2026-05-07 18:55 27.08240 64.28516 38814 ft 506 kts 41°
2026-05-07 18:55 27.13390 64.34462 38809 ft 506 kts 41°
2026-05-07 18:56 27.18595 64.40456 38811 ft 507 kts 41°
2026-05-07 18:56 27.23768 64.46408 38814 ft 506 kts 41°
2026-05-07 18:57 27.28998 64.52430 38809 ft 505 kts 41°
2026-05-07 18:57 27.34210 64.58438 38799 ft 505 kts 41°
2026-05-07 18:58 27.39228 64.64233 38790 ft 505 kts 41°
2026-05-07 18:58 27.44128 64.69900 38784 ft 506 kts 41°
2026-05-07 18:59 27.49199 64.75771 38785 ft 506 kts 41°
2026-05-07 18:59 27.54402 64.81806 38787 ft 507 kts 41°
2026-05-07 19:00 27.59578 64.87818 38786 ft 505 kts 41°
2026-05-07 19:00 27.64753 64.93836 38784 ft 505 kts 41°
2026-05-07 19:01 27.69755 64.99661 38786 ft 504 kts 41°
2026-05-07 19:01 27.74640 65.05357 38784 ft 504 kts 41°
2026-05-07 19:02 27.79609 65.11157 38785 ft 505 kts 41°
2026-05-07 19:02 27.84801 65.17227 38785 ft 504 kts 41°
2026-05-07 19:03 27.89949 65.23254 38785 ft 505 kts 41°
2026-05-07 19:03 27.95079 65.29270 38784 ft 505 kts 41°
2026-05-07 19:04 28.00201 65.35280 38785 ft 505 kts 41°
2026-05-07 19:04 28.05272 65.41244 38784 ft 505 kts 41°
2026-05-07 19:05 28.10382 65.47270 38785 ft 504 kts 41°
2026-05-07 19:05 28.15419 65.53221 38786 ft 504 kts 41°
2026-05-07 19:06 28.20517 65.59247 38786 ft 505 kts 41°
2026-05-07 19:06 28.28113 65.68241 38781 ft 505 kts 41°
2026-05-07 19:07 28.33165 65.74233 38785 ft 505 kts 41°
2026-05-07 19:07 28.38242 65.80262 38785 ft 505 kts 41°
2026-05-07 19:08 28.43337 65.86326 38785 ft 505 kts 41°
2026-05-07 19:08 28.48446 65.92409 38785 ft 505 kts 41°
2026-05-07 19:09 28.53348 65.98257 38785 ft 504 kts 41°
2026-05-07 19:09 28.58194 66.04044 38785 ft 505 kts 41°
2026-05-07 19:10 28.63011 66.09811 38785 ft 505 kts 41°
2026-05-07 19:10 28.67936 66.15711 38785 ft 505 kts 41°
2026-05-07 19:11 28.72904 66.21671 38785 ft 505 kts 41°
2026-05-07 19:11 28.77834 66.27595 38784 ft 505 kts 41°
2026-05-07 19:12 28.82741 66.33498 38785 ft 506 kts 41°
2026-05-07 19:12 28.87728 66.39506 38784 ft 505 kts 41°
2026-05-07 19:13 28.92663 66.45459 38785 ft 506 kts 41°
2026-05-07 19:13 28.97507 66.51310 38785 ft 505 kts 41°
2026-05-07 19:14 29.02425 66.57267 38785 ft 506 kts 41°
2026-05-07 19:14 29.07448 66.63349 38784 ft 507 kts 40°
2026-05-07 19:15 29.12409 66.69348 38782 ft 509 kts 40°
2026-05-07 19:15 29.17430 66.75420 38784 ft 509 kts 40°
2026-05-07 19:16 29.22475 66.81529 38784 ft 509 kts 40°
2026-05-07 19:16 29.27486 66.87611 38785 ft 509 kts 41°
2026-05-07 19:17 29.32318 66.93484 38785 ft 509 kts 40°
2026-05-07 19:17 29.37178 66.99400 38785 ft 509 kts 40°
2026-05-07 19:18 29.42250 67.05584 38785 ft 508 kts 40°
2026-05-07 19:18 29.47330 67.11784 38786 ft 508 kts 40°
2026-05-07 19:19 29.52400 67.17989 38786 ft 507 kts 40°
2026-05-07 19:19 29.57275 67.23958 38785 ft 506 kts 40°
2026-05-07 19:20 29.62207 67.30002 38786 ft 507 kts 40°
2026-05-07 19:20 29.66993 67.35880 38782 ft 506 kts 40°
2026-05-07 19:21 29.71807 67.41797 38770 ft 507 kts 40°
2026-05-07 19:21 29.76581 67.47675 38761 ft 506 kts 40°
2026-05-07 19:22 29.81399 67.53599 38759 ft 507 kts 40°
2026-05-07 19:22 29.86197 67.59503 38760 ft 507 kts 40°
2026-05-07 19:23 29.90994 67.65408 38757 ft 507 kts 41°
2026-05-07 19:23 29.95818 67.71358 38757 ft 507 kts 41°
2026-05-07 19:24 30.00611 67.77277 38758 ft 507 kts 41°
2026-05-07 19:24 30.05394 67.83192 38758 ft 507 kts 41°
2026-05-07 19:25 30.10185 67.89123 38759 ft 507 kts 40°
2026-05-07 19:25 30.14989 67.95025 38759 ft 506 kts 40°
2026-05-07 19:26 30.19826 68.00960 38757 ft 506 kts 40°
2026-05-07 19:26 30.24607 68.06838 38759 ft 507 kts 40°
2026-05-07 19:27 30.29414 68.12769 38758 ft 507 kts 40°
2026-05-07 19:27 30.34222 68.18716 38759 ft 507 kts 40°
2026-05-07 19:28 30.39026 68.24660 38759 ft 507 kts 40°
2026-05-07 19:28 30.43811 68.30585 38758 ft 507 kts 40°
2026-05-07 19:29 30.48632 68.36566 38758 ft 507 kts 40°
2026-05-07 19:29 30.53437 68.42533 38758 ft 507 kts 40°
2026-05-07 19:30 30.58218 68.48483 38759 ft 506 kts 40°
2026-05-07 19:30 30.63008 68.54449 38758 ft 507 kts 40°
2026-05-07 19:31 30.67771 68.60393 38759 ft 506 kts 40°
2026-05-07 19:31 30.72581 68.66406 38755 ft 507 kts 41°
2026-05-07 19:32 30.77361 68.72386 38757 ft 508 kts 41°
2026-05-07 19:32 30.82130 68.78368 38758 ft 507 kts 41°
2026-05-07 19:33 30.86911 68.84369 38758 ft 507 kts 41°
2026-05-07 19:33 30.91676 68.90359 38759 ft 507 kts 41°
2026-05-07 19:34 30.96458 68.96384 38759 ft 506 kts 41°
2026-05-07 19:34 31.01218 69.02388 38759 ft 505 kts 41°
2026-05-07 19:35 31.05958 69.08379 38759 ft 505 kts 41°
2026-05-07 19:35 31.10700 69.14379 38759 ft 504 kts 41°
2026-05-07 19:36 31.15436 69.20380 38759 ft 504 kts 41°
2026-05-07 19:36 31.20155 69.26367 38759 ft 504 kts 41°
2026-05-07 19:37 31.24898 69.32392 38759 ft 504 kts 41°
2026-05-07 19:37 31.29605 69.38387 38759 ft 504 kts 41°
2026-05-07 19:38 31.34549 69.44074 38758 ft 498 kts 34°
2026-05-07 19:38 31.39932 69.49008 38759 ft 491 kts 27°
2026-05-07 19:39 31.45649 69.53223 38759 ft 487 kts 23°
2026-05-07 19:39 31.51445 69.57272 38759 ft 487 kts 23°
2026-05-07 19:40 31.57261 69.61358 38759 ft 487 kts 24°
2026-05-07 19:40 31.63059 69.65456 38756 ft 487 kts 24°
2026-05-07 19:41 31.68829 69.69545 38757 ft 488 kts 24°
2026-05-07 19:41 31.74592 69.73637 38758 ft 488 kts 24°
2026-05-07 19:42 31.80384 69.77757 38759 ft 488 kts 24°
2026-05-07 19:42 31.86149 69.81865 38758 ft 487 kts 24°
2026-05-07 19:43 31.91939 69.85994 38758 ft 488 kts 24°
2026-05-07 19:43 31.97710 69.90116 38758 ft 487 kts 24°
2026-05-07 19:44 32.03500 69.94258 38759 ft 488 kts 24°
2026-05-07 19:44 32.09255 69.98381 38769 ft 488 kts 24°
2026-05-07 19:45 32.15065 70.02550 38789 ft 487 kts 24°
2026-05-07 19:45 32.20822 70.06686 38812 ft 487 kts 24°
2026-05-07 19:46 32.26594 70.10837 38827 ft 487 kts 24°
2026-05-07 19:46 32.32370 70.14995 38834 ft 488 kts 24°
2026-05-07 19:47 32.38139 70.19149 38837 ft 487 kts 24°
2026-05-07 19:47 32.43961 70.23192 38838 ft 486 kts 23°
2026-05-07 19:48 32.49772 70.27206 38838 ft 486 kts 23°
2026-05-07 19:48 32.55620 70.31052 38836 ft 478 kts 15°
2026-05-07 19:49 32.61885 70.32958 38837 ft 458 kts 356°
2026-05-07 19:49 32.68073 70.32494 38837 ft 440 kts 340°
2026-05-07 19:50 32.73666 70.29987 38837 ft 425 kts 324°
2026-05-07 19:50 32.78730 70.26402 38837 ft 424 kts 322°
2026-05-07 19:51 32.83731 70.22775 38836 ft 424 kts 322°
2026-05-07 19:51 32.88760 70.19141 38837 ft 424 kts 322°
2026-05-07 19:52 32.93784 70.15515 38836 ft 424 kts 322°
2026-05-07 19:52 32.98820 70.11875 38837 ft 424 kts 323°
2026-05-07 19:53 33.03838 70.08243 38837 ft 425 kts 323°
2026-05-07 19:53 33.08921 70.04644 38837 ft 427 kts 326°
2026-05-07 19:54 33.14148 70.01330 38838 ft 428 kts 327°
2026-05-07 19:54 33.19404 69.98028 38838 ft 428 kts 327°
2026-05-07 19:55 33.24640 69.94728 38837 ft 428 kts 327°
2026-05-07 19:55 33.29901 69.91406 38838 ft 428 kts 327°
2026-05-07 19:56 33.30783 69.90847 38837 ft 428 kts 327°
2026-05-07 19:57 33.45703 69.81382 38837 ft 428 kts 327°
2026-05-07 19:57 33.50938 69.78052 38838 ft 428 kts 327°
2026-05-07 19:58 33.56181 69.74768 38838 ft 429 kts 327°
2026-05-07 19:58 33.61482 69.71498 38838 ft 429 kts 327°
2026-05-07 19:59 33.64117 69.69869 38838 ft 429 kts 327°
2026-05-07 20:00 33.82856 69.58220 38837 ft 428 kts 327°
2026-05-07 20:01 33.88132 69.54927 38838 ft 428 kts 327°
2026-05-07 20:01 33.93384 69.51643 38838 ft 428 kts 327°
2026-05-07 20:02 34.03167 69.45512 38838 ft 429 kts 327°
2026-05-07 20:03 34.08441 69.42199 38838 ft 429 kts 327°
2026-05-07 20:03 34.13713 69.38893 38839 ft 429 kts 328°
2026-05-07 20:04 34.18991 69.35598 38838 ft 429 kts 328°
2026-05-07 20:04 34.24193 69.32339 38839 ft 428 kts 327°
2026-05-07 20:05 34.29473 69.29023 38838 ft 428 kts 327°
2026-05-07 20:05 34.34740 69.25710 38838 ft 428 kts 327°
2026-05-07 20:06 34.39985 69.22404 38838 ft 428 kts 327°
2026-05-07 20:06 34.45287 69.19057 38838 ft 429 kts 327°
2026-05-07 20:07 34.50581 69.15712 38839 ft 428 kts 327°
2026-05-07 20:07 34.55821 69.12367 38838 ft 428 kts 327°
2026-05-07 20:08 34.61082 69.08974 38838 ft 428 kts 327°
2026-05-07 20:08 34.66312 69.05593 38837 ft 429 kts 327°
2026-05-07 20:09 34.71848 69.02010 38837 ft 430 kts 327°
2026-05-07 20:10 34.80008 68.96719 38838 ft 430 kts 327°
2026-05-07 20:10 34.85628 68.93068 38837 ft 431 kts 327°
2026-05-07 20:11 34.91044 68.89543 38838 ft 431 kts 327°
2026-05-07 20:11 34.96645 68.85893 38838 ft 431 kts 327°
2026-05-07 20:12 35.02194 68.82270 38838 ft 430 kts 327°
2026-05-07 20:12 35.07682 68.78683 38838 ft 430 kts 327°
2026-05-07 20:13 35.13194 68.75077 38838 ft 430 kts 327°
2026-05-07 20:13 35.18463 68.71622 38838 ft 430 kts 327°
2026-05-07 20:14 35.23704 68.68181 38838 ft 430 kts 327°
2026-05-07 20:14 35.28979 68.64713 38838 ft 430 kts 327°
2026-05-07 20:15 35.34237 68.61248 38837 ft 430 kts 327°
2026-05-07 20:15 35.39493 68.57779 38838 ft 430 kts 327°